When you browse on this site, cookies collect data to enhance your experience and personalize the content and advertising you see.
Visit our Privacy Policy to learn more. By continuing to use the site, you agree to this use of cookies and data.
  • In Switzerland
  • List of Countries
  • For 7 days
  • Water Temperature
  • Weather Map
  • Weather Widgets
  • user-avatar
    Login

    Hourly Weather Ajaccio

    Today, 14 November, Thursday

    Time Temperature Precipitation Wind Pressure Humidity
    00:00 +9°C° 0 mm 3 mps 740 mmHg 71%
    01:00 +9°C° 0 mm 3 mps 740 mmHg 69%
    02:00 +9°C° 0 mm 3 mps 740 mmHg 68%
    03:00 +8°C° 0 mm 3 mps 740 mmHg 68%
    04:00 +8°C° 0 mm 3 mps 740 mmHg 67%
    05:00 +8°C° 0 mm 3 mps 740 mmHg 71%
    06:00 +8°C° 0 mm 2 mps 740 mmHg 74%
    07:00 +8°C° 0 mm 2 mps 740 mmHg 78%
    08:00 +9°C° 0 mm 2 mps 741 mmHg 72%
    09:00 +12°C° 0 mm 1 mps 741 mmHg 66%
    10:00 +14°C° 0 mm 1 mps 741 mmHg 60%
    11:00 +14°C° 0 mm 2 mps 741 mmHg 58%
    12:00 +14°C° 0 mm 2 mps 740 mmHg 56%
    13:00 +14°C° 0 mm 3 mps 740 mmHg 53%
    14:00 +13°C° 0 mm 3 mps 739 mmHg 58%
    15:00 +13°C° 0 mm 4 mps 739 mmHg 63%
    16:00 +12°C° 0 mm 5 mps 738 mmHg 67%
    17:00 +11°C° 0.8 mm 6 mps 737 mmHg 72%
    18:00 +10°C° 0.8 mm 7 mps 737 mmHg 77%
    19:00 +10°C° 0.8 mm 7 mps 736 mmHg 81%
    20:00 +10°C° 4.8 mm 7 mps 736 mmHg 84%
    21:00 +10°C° 4.8 mm 7 mps 736 mmHg 87%
    22:00 +10°C° 4.8 mm 6 mps 736 mmHg 90%
    23:00 +12°C° 4.8 mm 5 mps 736 mmHg 92%

    Tomorrow, 15 November, Friday

    Time Temperature Precipitation Wind Pressure Humidity
    00:00 +12°C° 4.8 mm 4 mps 737 mmHg 93%
    01:00 +12°C° 4.8 mm 3 mps 737 mmHg 95%
    02:00 +11°C° 2.8 mm 3 mps 737 mmHg 94%
    03:00 +10°C° 2.8 mm 3 mps 737 mmHg 94%
    04:00 +10°C° 2.8 mm 2 mps 737 mmHg 93%
    05:00 +9°C° 0.8 mm 2 mps 737 mmHg 91%
    06:00 +9°C° 0.8 mm 2 mps 737 mmHg 88%
    07:00 +9°C° 0.8 mm 3 mps 737 mmHg 86%
    08:00 +9°C° 0 mm 3 mps 737 mmHg 84%
    09:00 +10°C° 0 mm 3 mps 737 mmHg 82%
    10:00 +11°C° 0 mm 3 mps 738 mmHg 80%
    11:00 +11°C° 0.3 mm 3 mps 738 mmHg 78%
    12:00 +12°C° 0.3 mm 4 mps 738 mmHg 77%
    13:00 +12°C° 0.3 mm 5 mps 738 mmHg 75%
    14:00 +10°C° 1.3 mm 5 mps 738 mmHg 80%
    15:00 +9°C° 1.3 mm 5 mps 737 mmHg 85%
    16:00 +8°C° 1.3 mm 5 mps 737 mmHg 90%
    17:00 +8°C° 1.1 mm 5 mps 737 mmHg 89%
    18:00 +9°C° 1.1 mm 6 mps 738 mmHg 88%
    19:00 +9°C° 1.1 mm 6 mps 738 mmHg 87%
    20:00 +9°C° 0.8 mm 7 mps 738 mmHg 87%
    21:00 +9°C° 0.8 mm 7 mps 739 mmHg 86%
    22:00 +9°C° 0.8 mm 8 mps 739 mmHg 85%
    23:00 +9°C° 0.9 mm 8 mps 739 mmHg 85%

    Day after tomorrow, 16 November, Saturday

    Time Temperature Precipitation Wind Pressure Humidity
    00:00 +9°C° 0.9 mm 8 mps 740 mmHg 85%
    01:00 +9°C° 0.9 mm 8 mps 740 mmHg 85%
    02:00 +9°C° 1.1 mm 6 mps 741 mmHg 85%
    03:00 +9°C° 1.1 mm 5 mps 741 mmHg 86%
    04:00 +10°C° 1.1 mm 4 mps 741 mmHg 86%
    05:00 +9°C° 0.4 mm 3 mps 742 mmHg 86%
    06:00 +9°C° 0.4 mm 2 mps 742 mmHg 87%
    07:00 +9°C° 0.4 mm 2 mps 743 mmHg 87%
    08:00 +9°C° 0.1 mm 2 mps 743 mmHg 84%
    09:00 +11°C° 0.1 mm 1 mps 744 mmHg 82%
    10:00 +12°C° 0.1 mm 1 mps 744 mmHg 80%
    11:00 +13°C° 0 mm 1 mps 744 mmHg 75%
    12:00 +13°C° 0 mm 1 mps 744 mmHg 70%
    13:00 +14°C° 0 mm 1 mps 743 mmHg 65%
    14:00 +13°C° 0.1 mm 2 mps 743 mmHg 70%
    15:00 +12°C° 0.1 mm 3 mps 742 mmHg 74%
    16:00 +11°C° 0.1 mm 4 mps 742 mmHg 78%
    17:00 +11°C° 0.4 mm 3 mps 741 mmHg 80%
    18:00 +10°C° 0.4 mm 3 mps 741 mmHg 81%
    19:00 +9°C° 0.4 mm 3 mps 741 mmHg 83%
    20:00 +9°C° 0.2 mm 3 mps 740 mmHg 83%
    21:00 +9°C° 0.2 mm 3 mps 739 mmHg 83%
    22:00 +9°C° 0.2 mm 3 mps 738 mmHg 82%
    23:00 +9°C° 1.1 mm 3 mps 737 mmHg 85%

    17 November, Sunday

    Time Temperature Precipitation Wind Pressure Humidity
    00:00 +8°C° 1.1 mm 3 mps 736 mmHg 88%
    01:00 +8°C° 1.1 mm 3 mps 735 mmHg 91%
    02:00 +7°C° 1.5 mm 5 mps 734 mmHg 92%
    03:00 +6°C° 1.5 mm 7 mps 733 mmHg 92%
    04:00 +6°C° 1.5 mm 9 mps 733 mmHg 92%
    05:00 +6°C° 2.5 mm 10 mps 732 mmHg 93%
    06:00 +5°C° 2.5 mm 12 mps 732 mmHg 93%
    07:00 +7°C° 2.5 mm 13 mps 732 mmHg 94%
    08:00 +7°C° 0.9 mm 11 mps 733 mmHg 90%
    09:00 +7°C° 0.9 mm 8 mps 734 mmHg 86%
    10:00 +8°C° 0.9 mm 6 mps 734 mmHg 82%
    11:00 +8°C° 0 mm 7 mps 735 mmHg 81%
    12:00 +9°C° 0 mm 8 mps 735 mmHg 79%
    13:00 +10°C° 0 mm 8 mps 736 mmHg 77%
    14:00 +10°C° 0.1 mm 8 mps 736 mmHg 77%
    15:00 +9°C° 0.1 mm 7 mps 737 mmHg 77%
    16:00 +9°C° 0.1 mm 6 mps 737 mmHg 77%
    17:00 +9°C° 0 mm 6 mps 737 mmHg 78%
    18:00 +9°C° 0 mm 6 mps 738 mmHg 78%
    19:00 +8°C° 0 mm 6 mps 738 mmHg 79%
    20:00 +8°C° 0.1 mm 5 mps 739 mmHg 80%
    21:00 +8°C° 0.1 mm 5 mps 739 mmHg 81%
    22:00 +8°C° 0.1 mm 5 mps 739 mmHg 82%
    23:00 +8°C° 0.4 mm 5 mps 740 mmHg 83%

    18 November, Monday

    Time Temperature Precipitation Wind Pressure Humidity
    00:00 +8°C° 0.4 mm 5 mps 740 mmHg 84%
    01:00 +8°C° 0.4 mm 5 mps 740 mmHg 84%
    02:00 +8°C° 0.3 mm 5 mps 740 mmHg 84%
    03:00 +8°C° 0.3 mm 5 mps 740 mmHg 84%
    04:00 +8°C° 0.3 mm 5 mps 740 mmHg 84%
    05:00 +8°C° 0.4 mm 5 mps 741 mmHg 84%
    06:00 +8°C° 0.4 mm 4 mps 741 mmHg 84%
    07:00 +8°C° 0.4 mm 4 mps 741 mmHg 85%
    08:00 +8°C° 0.3 mm 4 mps 741 mmHg 83%
    09:00 +9°C° 0.3 mm 5 mps 742 mmHg 81%
    10:00 +9°C° 0.3 mm 5 mps 742 mmHg 79%
    11:00 +9°C° 0.1 mm 5 mps 742 mmHg 78%
    12:00 +9°C° 0.1 mm 5 mps 742 mmHg 76%
    13:00 +9°C° 0.1 mm 5 mps 742 mmHg 75%
    14:00 +9°C° 0.1 mm 5 mps 742 mmHg 76%
    15:00 +9°C° 0.1 mm 5 mps 742 mmHg 77%
    16:00 +9°C° 0.1 mm 5 mps 742 mmHg 78%
    17:00 +8°C° 0 mm 5 mps 743 mmHg 78%
    18:00 +8°C° 0 mm 5 mps 743 mmHg 78%
    19:00 +8°C° 0 mm 5 mps 743 mmHg 78%
    20:00 +8°C° 0 mm 5 mps 744 mmHg 79%
    21:00 +8°C° 0 mm 5 mps 744 mmHg 79%
    22:00 +8°C° 0 mm 5 mps 744 mmHg 80%
    23:00 +8°C° 0 mm 6 mps 745 mmHg 81%

    19 November, Tuesday

    Time Temperature Precipitation Wind Pressure Humidity
    00:00 +8°C° 0 mm 6 mps 745 mmHg 82%
    01:00 +8°C° 0 mm 6 mps 745 mmHg 82%
    02:00 +8°C° 0 mm 6 mps 745 mmHg 82%
    03:00 +8°C° 0 mm 5 mps 745 mmHg 82%
    04:00 +8°C° 0 mm 5 mps 746 mmHg 82%
    05:00 +7°C° 0 mm 4 mps 746 mmHg 82%
    06:00 +7°C° 0 mm 4 mps 746 mmHg 81%
    07:00 +6°C° 0 mm 4 mps 746 mmHg 81%
    08:00 +8°C° 0 mm 3 mps 747 mmHg 77%
    09:00 +10°C° 0 mm 3 mps 747 mmHg 74%
    10:00 +11°C° 0 mm 3 mps 748 mmHg 70%
    11:00 +12°C° 0.1 mm 2 mps 748 mmHg 71%
    12:00 +12°C° 0.1 mm 2 mps 748 mmHg 72%
    13:00 +12°C° 0.1 mm 2 mps 747 mmHg 74%
    14:00 +12°C° 0.1 mm 2 mps 747 mmHg 77%
    15:00 +11°C° 0.1 mm 3 mps 747 mmHg 80%
    16:00 +11°C° 0.1 mm 3 mps 747 mmHg 83%
    17:00 +10°C° 0.2 mm 3 mps 747 mmHg 84%
    18:00 +10°C° 0.2 mm 3 mps 747 mmHg 86%
    19:00 +10°C° 0.2 mm 2 mps 748 mmHg 88%
    20:00 +10°C° 0.2 mm 3 mps 748 mmHg 88%
    21:00 +11°C° 0.2 mm 3 mps 748 mmHg 88%
    22:00 +11°C° 0.2 mm 3 mps 748 mmHg 88%
    23:00 +11°C° 0.1 mm 3 mps 748 mmHg 88%
    Show more